Carnival Splendor — 3EUS — position and weather

sailwx.info

Track history (hours):
 
Tides and Currents Weather Stations Pressure Air Temp Water Temp Dewpoint Dewpoint Depression Visibility Wind Speed Wind Dir Waves Ship Positions

Carnival Splendor

Last reported at 2016-Aug-22 01:33 UTC. Time now 2016-Aug-24 01:26 UTC.
Position N 24°37' W 079°41'.

Length 289 m; draft 8.3 m.

Type: Ship. MMSI: 372808000.

Date/timePositionNaut miles runAvg speedWind from/ knotsBaromVisibWave heightAir tempDewpointWater temp
2016-Aug-22 01:33N 24°37' W 079°41'5317.4
2016-Aug-21 22:31N 25°29' W 079°53'1516.2
2016-Aug-21 21:33N 25°43' W 079°60'10 9.6
2016-Aug-21 20:33N 25°47' W 080°10'0 0.4
2016-Aug-21 19:33N 25°47' W 080°10'0 0.0
2016-Aug-21 18:33N 25°47' W 080°10'0 0.0
2016-Aug-21 17:32N 25°47' W 080°10'0 0.0
2016-Aug-21 16:32N 25°47' W 080°10'0 0.0
2016-Aug-21 15:31N 25°47' W 080°10'0 0.0
2016-Aug-21 14:31N 25°47' W 080°10'0 0.0
2016-Aug-21 13:31N 25°47' W 080°10'0 0.0
2016-Aug-21 12:33N 25°47' W 080°10'0 0.0
2016-Aug-21 11:33N 25°47' W 080°10'0 0.0
2016-Aug-21 10:32N 25°47' W 080°10'1 0.8
2016-Aug-21 09:34N 25°47' W 080°11'8 7.6
2016-Aug-21 08:34N 25°47' W 080°02'1110.8
2016-Aug-21 07:34N 25°38' W 079°55'1616.0
2016-Aug-21 06:34N 25°23' W 079°49'  
2016-Aug-14 01:05N 26°12' W 079°16'916.8
2016-Aug-14 00:33N 26°07' W 079°25'1817.9
2016-Aug-13 23:33N 25°58' W 079°42'1818.3
2016-Aug-13 22:33N 25°49' W 079°60'10 9.7
2016-Aug-13 21:33N 25°47' W 080°10'0 0.1
2016-Aug-13 20:33N 25°47' W 080°10'0 0.0
2016-Aug-13 19:30N 25°47' W 080°10'0 0.0
2016-Aug-13 18:24N 25°47' W 080°10'0 0.0
2016-Aug-13 17:32N 25°47' W 080°10'0 0.0
2016-Aug-13 16:24N 25°47' W 080°10'0 0.0
2016-Aug-13 15:33N 25°47' W 080°10'0 0.0
2016-Aug-13 14:31N 25°47' W 080°10'0 0.0
2016-Aug-13 13:27N 25°47' W 080°10'0 0.0
2016-Aug-13 12:30N 25°47' W 080°10'0 0.0
2016-Aug-13 11:29N 25°47' W 080°10'0 0.0
2016-Aug-13 10:20N 25°47' W 080°10'2 1.8
2016-Aug-13 09:14N 25°46' W 080°08'710.7
2016-Aug-13 08:33N 25°47' W 080°00'  
Track history (hours):
 
Tides and Currents Weather Stations Pressure Air Temp Water Temp Dewpoint Dewpoint Depression Visibility Wind Speed Wind Dir Waves Ship Positions

Carnival Splendor

Last reported at 2016-Aug-22 01:33 UTC. Time now 2016-Aug-24 01:26 UTC.
Position N 24°37' W 079°41'.

Length 289 m; draft 8.3 m.

Type: Ship. MMSI: 372808000.

Date/timePositionNaut miles runAvg speedWind from/ knotsBaromVisibWave heightAir tempDewpointWater temp
2016-Aug-22 01:33N 24°37' W 079°41'5317.4
2016-Aug-21 22:31N 25°29' W 079°53'1516.2
2016-Aug-21 21:33N 25°43' W 079°60'10 9.6
2016-Aug-21 20:33N 25°47' W 080°10'0 0.4
2016-Aug-21 19:33N 25°47' W 080°10'0 0.0
2016-Aug-21 18:33N 25°47' W 080°10'0 0.0
2016-Aug-21 17:32N 25°47' W 080°10'0 0.0
2016-Aug-21 16:32N 25°47' W 080°10'0 0.0
2016-Aug-21 15:31N 25°47' W 080°10'0 0.0
2016-Aug-21 14:31N 25°47' W 080°10'0 0.0
2016-Aug-21 13:31N 25°47' W 080°10'0 0.0
2016-Aug-21 12:33N 25°47' W 080°10'0 0.0
2016-Aug-21 11:33N 25°47' W 080°10'0 0.0
2016-Aug-21 10:32N 25°47' W 080°10'1 0.8
2016-Aug-21 09:34N 25°47' W 080°11'8 7.6
2016-Aug-21 08:34N 25°47' W 080°02'1110.8
2016-Aug-21 07:34N 25°38' W 079°55'1616.0
2016-Aug-21 06:34N 25°23' W 079°49'  
2016-Aug-14 01:05N 26°12' W 079°16'916.8
2016-Aug-14 00:33N 26°07' W 079°25'1817.9
2016-Aug-13 23:33N 25°58' W 079°42'1818.3
2016-Aug-13 22:33N 25°49' W 079°60'10 9.7
2016-Aug-13 21:33N 25°47' W 080°10'0 0.1
2016-Aug-13 20:33N 25°47' W 080°10'0 0.0
2016-Aug-13 19:30N 25°47' W 080°10'0 0.0
2016-Aug-13 18:24N 25°47' W 080°10'0 0.0
2016-Aug-13 17:32N 25°47' W 080°10'0 0.0
2016-Aug-13 16:24N 25°47' W 080°10'0 0.0
2016-Aug-13 15:33N 25°47' W 080°10'0 0.0
2016-Aug-13 14:31N 25°47' W 080°10'0 0.0
2016-Aug-13 13:27N 25°47' W 080°10'0 0.0
2016-Aug-13 12:30N 25°47' W 080°10'0 0.0
2016-Aug-13 11:29N 25°47' W 080°10'0 0.0
2016-Aug-13 10:20N 25°47' W 080°10'2 1.8
2016-Aug-13 09:14N 25°46' W 080°08'710.7
2016-Aug-13 08:33N 25°47' W 080°00'  

Dump ship's entire track history